カタログに戻る

STARLINK-6185

運用中通信VLEO
NORAD 56901·PAYLOAD·🇺🇸 United States

打ち上げ Jun 12, 2023 から Cape Canaveral Space Force Station

Loading…

次のパス (今後24時間)

TLE

最新Source: CelesTrak SupGP

元期: Sep 15, 2026, 01:45 UTC

1 56901C 23083AB  26258.07340278  .00021159  00000+0  76621-3 0  2581
2 56901  43.0010  92.3963 0002088 265.0398  49.4308 15.27574433    14

AllMySatでSTARLINK-6185をリアルタイム追跡

Download on the App Store